Hourly Weather Kozuchow

Today, 24 October, Saturday

Time Temperature Precipitation Wind Pressure Humidity
00:00 +9°C° 0 mm 2 mps 738 mmHg 90%
01:00 +9°C° 0 mm 2 mps 738 mmHg 90%
02:00 +10°C° 0 mm 2 mps 738 mmHg 89%
03:00 +10°C° 0 mm 2 mps 738 mmHg 88%
04:00 +10°C° 0 mm 2 mps 737 mmHg 87%
05:00 +10°C° 0 mm 2 mps 737 mmHg 88%
06:00 +10°C° 0 mm 2 mps 738 mmHg 88%
07:00 +10°C° 0 mm 2 mps 738 mmHg 88%
08:00 +10°C° 0.1 mm 3 mps 738 mmHg 87%
09:00 +11°C° 0.1 mm 3 mps 738 mmHg 85%
10:00 +12°C° 0.1 mm 3 mps 739 mmHg 84%
11:00 +13°C° 0 mm 3 mps 739 mmHg 82%
12:00 +14°C° 0 mm 3 mps 739 mmHg 80%
13:00 +16°C° 0 mm 3 mps 740 mmHg 78%
14:00 +14°C° 0 mm 3 mps 740 mmHg 82%
15:00 +14°C° 0 mm 2 mps 739 mmHg 85%
16:00 +14°C° 0 mm 1 mps 739 mmHg 89%
17:00 +13°C° 0 mm 1 mps 740 mmHg 90%
18:00 +12°C° 0 mm 1 mps 740 mmHg 91%
19:00 +12°C° 0 mm 1 mps 741 mmHg 92%
20:00 +11°C° 0 mm 1 mps 741 mmHg 93%
21:00 +11°C° 0 mm 1 mps 741 mmHg 93%
22:00 +11°C° 0 mm 1 mps 741 mmHg 93%
23:00 +11°C° 0 mm 1 mps 741 mmHg 93%

Tomorrow, 25 October, Sunday

Time Temperature Precipitation Wind Pressure Humidity
00:00 +9°C° 0 mm 0 mps 741 mmHg 93%
01:00 +9°C° 0 mm 0 mps 741 mmHg 93%
02:00 +9°C° 0 mm 0 mps 741 mmHg 94%
03:00 +9°C° 0 mm 0 mps 740 mmHg 94%
04:00 +10°C° 0 mm 1 mps 740 mmHg 94%
05:00 +10°C° 0 mm 1 mps 740 mmHg 94%
06:00 +10°C° 0 mm 1 mps 740 mmHg 94%
07:00 +10°C° 0 mm 1 mps 740 mmHg 94%
08:00 +10°C° 0 mm 2 mps 740 mmHg 89%
09:00 +13°C° 0 mm 2 mps 740 mmHg 83%
10:00 +13°C° 0 mm 3 mps 740 mmHg 78%
11:00 +14°C° 0 mm 3 mps 739 mmHg 76%
12:00 +14°C° 0 mm 3 mps 739 mmHg 75%
13:00 +14°C° 0 mm 3 mps 739 mmHg 74%
14:00 +14°C° 0.1 mm 3 mps 739 mmHg 79%
15:00 +14°C° 0.1 mm 2 mps 738 mmHg 83%
16:00 +13°C° 0.1 mm 2 mps 738 mmHg 88%
17:00 +13°C° 0 mm 2 mps 738 mmHg 90%
18:00 +13°C° 0 mm 2 mps 738 mmHg 91%
19:00 +12°C° 0 mm 2 mps 738 mmHg 93%
20:00 +12°C° 0 mm 2 mps 738 mmHg 93%
21:00 +12°C° 0 mm 2 mps 738 mmHg 93%
22:00 +12°C° 0 mm 2 mps 738 mmHg 92%
23:00 +11°C° 0 mm 3 mps 738 mmHg 92%

Day after tomorrow, 26 October, Monday

Time Temperature Precipitation Wind Pressure Humidity
00:00 +11°C° 0 mm 3 mps 737 mmHg 92%
01:00 +11°C° 0 mm 3 mps 737 mmHg 92%
02:00 +11°C° 0 mm 3 mps 737 mmHg 91%
03:00 +11°C° 0 mm 4 mps 737 mmHg 91%
04:00 +11°C° 0 mm 4 mps 737 mmHg 91%
05:00 +11°C° 0 mm 4 mps 737 mmHg 91%
06:00 +11°C° 0 mm 4 mps 737 mmHg 91%
07:00 +11°C° 0 mm 4 mps 737 mmHg 91%
08:00 +13°C° 0 mm 5 mps 737 mmHg 86%
09:00 +14°C° 0 mm 6 mps 736 mmHg 80%
10:00 +15°C° 0 mm 7 mps 736 mmHg 74%
11:00 +15°C° 0 mm 7 mps 736 mmHg 73%
12:00 +16°C° 0 mm 8 mps 736 mmHg 72%
13:00 +16°C° 0 mm 8 mps 736 mmHg 70%
14:00 +15°C° 0 mm 7 mps 736 mmHg 74%
15:00 +14°C° 0 mm 6 mps 736 mmHg 77%
16:00 +14°C° 0 mm 6 mps 736 mmHg 80%
17:00 +14°C° 0 mm 6 mps 736 mmHg 80%
18:00 +14°C° 0 mm 6 mps 736 mmHg 81%
19:00 +14°C° 0 mm 6 mps 736 mmHg 81%
20:00 +13°C° 0 mm 6 mps 736 mmHg 82%
21:00 +13°C° 0 mm 6 mps 736 mmHg 83%
22:00 +13°C° 0 mm 6 mps 736 mmHg 84%
23:00 +13°C° 0 mm 6 mps 736 mmHg 84%

, 27 October, Tuesday

Time Temperature Precipitation Wind Pressure Humidity
00:00 +13°C° 0 mm 6 mps 737 mmHg 84%
01:00 +13°C° 0 mm 6 mps 737 mmHg 84%
02:00 +13°C° 0 mm 6 mps 737 mmHg 85%
03:00 +11°C° 0 mm 6 mps 737 mmHg 85%
04:00 +11°C° 0 mm 6 mps 737 mmHg 86%
05:00 +12°C° 0 mm 5 mps 737 mmHg 86%
06:00 +12°C° 0 mm 5 mps 737 mmHg 87%
07:00 +12°C° 0 mm 5 mps 737 mmHg 88%
08:00 +13°C° 0 mm 5 mps 737 mmHg 80%
09:00 +15°C° 0 mm 5 mps 737 mmHg 73%
10:00 +16°C° 0 mm 6 mps 738 mmHg 66%
11:00 +17°C° 0 mm 5 mps 737 mmHg 64%
12:00 +17°C° 0 mm 5 mps 737 mmHg 62%
13:00 +19°C° 0 mm 5 mps 737 mmHg 59%
14:00 +17°C° 0 mm 5 mps 737 mmHg 64%
15:00 +17°C° 0 mm 4 mps 737 mmHg 70%
16:00 +14°C° 0 mm 3 mps 737 mmHg 75%
17:00 +14°C° 0 mm 3 mps 737 mmHg 78%
18:00 +13°C° 0 mm 3 mps 737 mmHg 80%
19:00 +12°C° 0 mm 3 mps 737 mmHg 83%
20:00 +12°C° 0 mm 3 mps 738 mmHg 84%
21:00 +12°C° 0 mm 3 mps 738 mmHg 85%
22:00 +12°C° 0 mm 2 mps 738 mmHg 86%
23:00 +12°C° 0 mm 2 mps 738 mmHg 86%

27 October, Tuesday

Time Temperature Precipitation Wind Pressure Humidity
00:00 +13°C° 0 mm 6 mps 737 mmHg 84%
01:00 +13°C° 0 mm 6 mps 737 mmHg 84%
02:00 +13°C° 0 mm 6 mps 737 mmHg 85%
03:00 +11°C° 0 mm 6 mps 737 mmHg 85%
04:00 +11°C° 0 mm 6 mps 737 mmHg 86%
05:00 +12°C° 0 mm 5 mps 737 mmHg 86%
06:00 +12°C° 0 mm 5 mps 737 mmHg 87%
07:00 +12°C° 0 mm 5 mps 737 mmHg 88%
08:00 +13°C° 0 mm 5 mps 737 mmHg 80%
09:00 +15°C° 0 mm 5 mps 737 mmHg 73%
10:00 +16°C° 0 mm 6 mps 738 mmHg 66%
11:00 +17°C° 0 mm 5 mps 737 mmHg 64%
12:00 +17°C° 0 mm 5 mps 737 mmHg 62%
13:00 +19°C° 0 mm 5 mps 737 mmHg 59%
14:00 +17°C° 0 mm 5 mps 737 mmHg 64%
15:00 +17°C° 0 mm 4 mps 737 mmHg 70%
16:00 +14°C° 0 mm 3 mps 737 mmHg 75%
17:00 +14°C° 0 mm 3 mps 737 mmHg 78%
18:00 +13°C° 0 mm 3 mps 737 mmHg 80%
19:00 +12°C° 0 mm 3 mps 737 mmHg 83%
20:00 +12°C° 0 mm 3 mps 738 mmHg 84%
21:00 +12°C° 0 mm 3 mps 738 mmHg 85%
22:00 +12°C° 0 mm 2 mps 738 mmHg 86%
23:00 +12°C° 0 mm 2 mps 738 mmHg 86%

28 October, Wednesday

Time Temperature Precipitation Wind Pressure Humidity
00:00 +12°C° 0 mm 2 mps 738 mmHg 87%
01:00 +12°C° 0 mm 2 mps 738 mmHg 87%
02:00 +11°C° 0 mm 1 mps 738 mmHg 88%
03:00 +11°C° 0 mm 1 mps 738 mmHg 88%
04:00 +11°C° 0 mm 1 mps 739 mmHg 88%
05:00 +11°C° 0 mm 1 mps 739 mmHg 88%
06:00 +10°C° 0 mm 0 mps 739 mmHg 88%
07:00 +10°C° 0 mm 0 mps 739 mmHg 88%
08:00 +11°C° 0 mm 0 mps 739 mmHg 83%
09:00 +13°C° 0 mm 0 mps 739 mmHg 78%
10:00 +14°C° 0 mm 0 mps 740 mmHg 73%
11:00 +16°C° 0 mm 1 mps 740 mmHg 70%
12:00 +18°C° 0 mm 1 mps 739 mmHg 67%
13:00 +18°C° 0 mm 1 mps 739 mmHg 64%
14:00 +18°C° 0 mm 1 mps 739 mmHg 68%
15:00 +16°C° 0 mm 1 mps 739 mmHg 73%
16:00 +15°C° 0 mm 1 mps 739 mmHg 77%
17:00 +14°C° 0 mm 1 mps 739 mmHg 81%
18:00 +13°C° 0 mm 1 mps 739 mmHg 84%
19:00 +12°C° 0 mm 1 mps 739 mmHg 87%
20:00 +12°C° 0 mm 1 mps 740 mmHg 88%
21:00 +12°C° 0 mm 1 mps 740 mmHg 88%
22:00 +12°C° 0 mm 1 mps 740 mmHg 89%
23:00 +11°C° 0 mm 1 mps 740 mmHg 89%

29 October, Thursday

Time Temperature Precipitation Wind Pressure Humidity
00:00 +11°C° 0 mm 1 mps 740 mmHg 90%
01:00 +11°C° 0 mm 1 mps 740 mmHg 90%
02:00 +11°C° 0 mm 1 mps 740 mmHg 91%
03:00 +10°C° 0 mm 1 mps 740 mmHg 92%
04:00 +10°C° 0 mm 1 mps 740 mmHg 92%
05:00 +10°C° 0 mm 1 mps 740 mmHg 93%
06:00 +10°C° 0 mm 1 mps 741 mmHg 93%
07:00 +10°C° 0 mm 1 mps 741 mmHg 93%
08:00 +12°C° 0 mm 1 mps 741 mmHg 87%
09:00 +13°C° 0 mm 1 mps 741 mmHg 81%
10:00 +15°C° 0 mm 1 mps 741 mmHg 75%
11:00 +15°C° 0 mm 1 mps 741 mmHg 71%
12:00 +16°C° 0 mm 1 mps 742 mmHg 67%
13:00 +17°C° 0 mm 2 mps 742 mmHg 62%
14:00 +16°C° 0 mm 1 mps 742 mmHg 66%
15:00 +15°C° 0 mm 1 mps 742 mmHg 70%
16:00 +14°C° 0 mm 1 mps 742 mmHg 73%
17:00 +13°C° 0 mm 1 mps 742 mmHg 76%
18:00 +12°C° 0 mm 1 mps 743 mmHg 78%
19:00 +12°C° 0 mm 1 mps 743 mmHg 81%
20:00 +12°C° 0 mm 1 mps 743 mmHg 81%
21:00 +12°C° 0 mm 1 mps 744 mmHg 81%
22:00 +12°C° 0 mm 1 mps 744 mmHg 81%
23:00 +11°C° 0 mm 1 mps 744 mmHg 82%
Show more